| time (UTC) | temp F | wind direction | speed MPH | gust MPH | rain 1hr in | rain 24hr in | rain mn in | humidity % | barometer mb |
| 20260903071704 | 58 | 225 | 6.0 | 10.0 | 0.00 | 0.11 | 0.02 | 94 | 1010.6 |
| 20260903070204 | 58 | 220 | 4.0 | 8.0 | 0.00 | 0.11 | 0.02 | 94 | 1010.7 |
| 20260903065705 | 58 | 211 | 5.0 | 8.0 | 0.01 | 0.11 | 0.02 | 94 | 1010.8 |
| 20260903065204 | 57 | 224 | 5.0 | 8.0 | 0.01 | 0.11 | 0.02 | 94 | 1010.8 |
| 20260903064705 | 57 | 223 | 5.0 | 10.0 | 0.01 | 0.11 | 0.02 | 94 | 1010.8 |
| 20260903063704 | 56 | 209 | 4.0 | 7.0 | 0.01 | 0.11 | 0.02 | 94 | 1010.4 |
| 20260903063204 | 56 | 215 | 4.0 | 7.0 | 0.01 | 0.11 | 0.02 | 94 | 1010.7 |
| 20260903062703 | 55 | 220 | 4.0 | 6.0 | 0.01 | 0.11 | 0.02 | 94 | 1010.7 |
| 20260903062204 | 55 | 201 | 4.0 | 8.0 | 0.01 | 0.11 | 0.02 | 94 | 1010.5 |
| 20260903061705 | 55 | 211 | 3.0 | 6.0 | 0.01 | 0.11 | 0.02 | 93 | 1010.5 |
| 20260903061203 | 55 | 204 | 2.0 | 5.0 | 0.01 | 0.11 | 0.02 | 93 | 1010.4 |
| 20260903060705 | 55 | 201 | 2.0 | 5.0 | 0.01 | 0.11 | 0.02 | 93 | 1010.2 |
| 20260903020704 | 57 | 266 | 6.0 | 10.0 | 0.00 | 0.10 | 0.01 | 95 | 1010.9 |
| 20260903020204 | 57 | 263 | 6.0 | 9.0 | 0.00 | 0.10 | 0.01 | 95 | 1010.6 |
| 20260903015203 | 57 | 252 | 6.0 | 12.0 | 0.00 | 0.10 | 0.01 | 95 | 1010.6 |
| 20260903014704 | 57 | 253 | 6.0 | 12.0 | 0.00 | 0.10 | 0.01 | 95 | 1010.6 |
| 20260903014203 | 58 | 256 | 7.0 | 12.0 | 0.00 | 0.10 | 0.01 | 95 | 1010.5 |
| 20260903013704 | 58 | 247 | 5.0 | 8.0 | 0.00 | 0.10 | 0.01 | 95 | 1010.4 |
| 20260903013204 | 58 | 242 | 6.0 | 9.0 | 0.00 | 0.10 | 0.01 | 95 | 1010.5 |
| 20260903012204 | 58 | 267 | 6.0 | 9.0 | 0.00 | 0.10 | 0.01 | 95 | 1010.4 |
| 20260903011703 | 58 | 258 | 6.0 | 9.0 | 0.00 | 0.10 | 0.01 | 96 | 1010.5 |
| 20260903011204 | 59 | 248 | 5.0 | 10.0 | 0.00 | 0.10 | 0.01 | 96 | 1010.4 |
| 20260903010704 | 59 | 245 | 4.0 | 9.0 | 0.00 | 0.10 | 0.01 | 96 | 1010.4 |
| 20260903010204 | 59 | 271 | 5.0 | 8.0 | 0.00 | 0.10 | 0.01 | 96 | 1010.3 |
| 20260903005704 | 59 | 255 | 7.0 | 10.0 | 0.00 | 0.10 | 0.01 | 96 | 1010.4 |
| 20260903005203 | 59 | 263 | 7.0 | 12.0 | 0.00 | 0.10 | 0.01 | 96 | 1010.3 |
| 20260903004703 | 58 | 253 | 5.0 | 12.0 | 0.01 | 0.10 | 0.01 | 96 | 1010.4 |
| 20260903004204 | 58 | 250 | 6.0 | 12.0 | 0.01 | 0.10 | 0.01 | 95 | 1010.4 |
| 20260903003704 | 58 | 244 | 5.0 | 9.0 | 0.01 | 0.10 | 0.01 | 95 | 1010.2 |
| 20260903003204 | 58 | 252 | 5.0 | 9.0 | 0.01 | 0.10 | 0.01 | 95 | 1010.2 |
| 20260903002704 | 59 | 251 | 3.0 | 7.0 | 0.01 | 0.10 | 0.01 | 95 | 1010.2 |
| 20260903002204 | 59 | 256 | 5.0 | 9.0 | 0.01 | 0.10 | 0.01 | 95 | 1010.2 |
| 20260903001704 | 59 | 251 | 4.0 | 9.0 | 0.01 | 0.10 | 0.01 | 95 | 1010.3 |
| 20260903001204 | 59 | 251 | 5.0 | 7.0 | 0.01 | 0.10 | 0.01 | 95 | 1010.3 |
| 20260903000704 | 59 | 239 | 4.0 | 10.0 | 0.01 | 0.10 | 0.01 | 95 | 1010.2 |
| 20260903000205 | 59 | 241 | 5.0 | 10.0 | 0.01 | 0.10 | 0.01 | 95 | 1010.2 |
| 20260902235704 | 59 | 239 | 5.0 | 7.0 | 0.01 | 0.10 | 0.01 | 95 | 1010.2 |
| 20260902235204 | 59 | 243 | 5.0 | 9.0 | 0.01 | 0.10 | 0.01 | 95 | 1010.1 |
| 20260902234704 | 59 | 250 | 5.0 | 9.0 | 0.00 | 0.09 | 0.00 | 95 | 1010.0 |
| 20260902233703 | 60 | 264 | 5.0 | 10.0 | 0.00 | 0.09 | 0.00 | 94 | 1010.0 |
| 20260902233203 | 60 | 259 | 5.0 | 10.0 | 0.00 | 0.09 | 0.00 | 95 | 1009.9 |
| 20260902232704 | 60 | 257 | 7.0 | 12.0 | 0.00 | 0.09 | 0.00 | 95 | 1009.9 |
| 20260902232204 | 60 | 262 | 6.0 | 12.0 | 0.00 | 0.09 | 0.00 | 95 | 1010.0 |
| 20260902231704 | 60 | 264 | 7.0 | 13.0 | 0.00 | 0.09 | 0.00 | 95 | 1010.0 |
| 20260902231203 | 60 | 264 | 9.0 | 17.0 | 0.00 | 0.09 | 0.00 | 95 | 1009.9 |
| 20260902230205 | 60 | 251 | 10.0 | 15.0 | 0.00 | 0.09 | 0.00 | 95 | 1009.8 |
| 20260902225705 | 59 | 247 | 8.0 | 14.0 | 0.00 | 0.09 | 0.09 | 95 | 1009.8 |
| 20260902225204 | 59 | 253 | 8.0 | 13.0 | 0.01 | 0.09 | 0.09 | 96 | 1009.7 |
| 20260902223704 | 59 | 247 | 10.0 | 13.0 | 0.03 | 0.09 | 0.09 | 96 | 1009.6 |
| 20260902222704 | 59 | 255 | 9.0 | 15.0 | 0.03 | 0.09 | 0.09 | 96 | 1009.6 |
| 20260902222204 | 59 | 254 | 9.0 | 13.0 | 0.03 | 0.09 | 0.09 | 96 | 1009.6 |
| 20260902221704 | 59 | 266 | 6.0 | 12.0 | 0.03 | 0.09 | 0.09 | 95 | 1009.7 |
| 20260902221204 | 60 | 253 | 6.0 | 9.0 | 0.03 | 0.09 | 0.09 | 95 | 1009.7 |
| 20260902215704 | 60 | 245 | 6.0 | 10.0 | 0.03 | 0.09 | 0.09 | 95 | 1009.6 |
| 20260902215204 | 60 | 252 | 7.0 | 12.0 | 0.02 | 0.09 | 0.09 | 95 | 1009.6 |
| 20260902214704 | 60 | 252 | 7.0 | 12.0 | 0.02 | 0.08 | 0.08 | 95 | 1009.7 |
| 20260902214204 | 60 | 258 | 7.0 | 14.0 | 0.01 | 0.07 | 0.07 | 95 | 1009.7 |
| 20260902213204 | 60 | 264 | 9.0 | 13.0 | 0.00 | 0.06 | 0.06 | 95 | 1009.4 |
| 20260902212704 | 60 | 247 | 8.0 | 13.0 | 0.00 | 0.06 | 0.06 | 95 | 1009.4 |
| 20260902212203 | 60 | 255 | 9.0 | 14.0 | 0.00 | 0.06 | 0.06 | 95 | 1009.5 |
| 20260902211703 | 60 | 260 | 9.0 | 13.0 | 0.00 | 0.06 | 0.06 | 95 | 1009.5 |
| 20260902211203 | 60 | 257 | 10.0 | 15.0 | 0.00 | 0.06 | 0.06 | 95 | 1009.2 |
| 20260902210203 | 60 | 255 | 10.0 | 18.0 | 0.00 | 0.06 | 0.06 | 95 | 1009.2 |
| 20260902205704 | 60 | 253 | 13.0 | 20.0 | 0.00 | 0.06 | 0.06 | 95 | 1009.2 |
| 20260902205204 | 60 | 255 | 10.0 | 15.0 | 0.00 | 0.06 | 0.06 | 96 | 1009.0 |
| 20260902204704 | 60 | 265 | 10.0 | 18.0 | 0.00 | 0.06 | 0.06 | 96 | 1009.0 |
| 20260902204204 | 60 | 256 | 10.0 | 20.0 | 0.00 | 0.06 | 0.06 | 96 | 1009.0 |
| 20260902203703 | 60 | 269 | 12.0 | 18.0 | 0.00 | 0.06 | 0.06 | 96 | 1008.9 |
| 20260902203204 | 61 | 245 | 11.0 | 20.0 | 0.00 | 0.06 | 0.06 | 96 | 1008.8 |
| 20260902202203 | 61 | 251 | 14.0 | 20.0 | 0.00 | 0.06 | 0.06 | 96 | 1008.9 |
| 20260902201703 | 61 | 245 | 10.0 | 16.0 | 0.00 | 0.06 | 0.06 | 96 | 1008.7 |
| 20260902201204 | 61 | 257 | 10.0 | 20.0 | 0.00 | 0.06 | 0.06 | 96 | 1008.3 |
| 20260902200703 | 61 | 247 | 9.0 | 15.0 | 0.00 | 0.06 | 0.06 | 96 | 1008.5 |
| 20260902195704 | 61 | 240 | 10.0 | 16.0 | 0.00 | 0.06 | 0.06 | 96 | 1008.3 |
| 20260902194704 | 61 | 251 | 7.0 | 13.0 | 0.00 | 0.06 | 0.06 | 96 | 1008.5 |
| 20260902193704 | 61 | 250 | 10.0 | 17.0 | 0.01 | 0.06 | 0.06 | 96 | 1008.4 |
| 20260902192704 | 61 | 240 | 9.0 | 13.0 | 0.01 | 0.06 | 0.06 | 96 | 1008.0 |
| 20260902192204 | 61 | 233 | 7.0 | 13.0 | 0.01 | 0.06 | 0.06 | 96 | 1008.3 |
| 20260902191203 | 61 | 260 | 10.0 | 16.0 | 0.01 | 0.06 | 0.06 | 96 | 1008.3 |
| 20260902190704 | 61 | 240 | 8.0 | 14.0 | 0.01 | 0.06 | 0.06 | 96 | 1008.1 |
| 20260902190204 | 62 | 253 | 6.0 | 13.0 | 0.02 | 0.06 | 0.06 | 96 | 1008.2 |
| 20260902185703 | 62 | 252 | 8.0 | 12.0 | 0.02 | 0.06 | 0.06 | 96 | 1008.1 |
| 20260902185205 | 62 | 261 | 8.0 | 13.0 | 0.02 | 0.06 | 0.06 | 96 | 1008.3 |
| 20260902184704 | 62 | 243 | 9.0 | 13.0 | 0.02 | 0.06 | 0.06 | 96 | 1008.1 |
| 20260902184204 | 62 | 255 | 8.0 | 15.0 | 0.02 | 0.06 | 0.06 | 96 | 1008.0 |
| 20260902183203 | 62 | 234 | 9.0 | 14.0 | 0.01 | 0.06 | 0.06 | 96 | 1007.8 |
| 20260902182704 | 63 | 233 | 8.0 | 14.0 | 0.01 | 0.06 | 0.06 | 96 | 1007.8 |
| 20260902182205 | 63 | 228 | 7.0 | 15.0 | 0.01 | 0.06 | 0.06 | 96 | 1007.9 |
| 20260902181704 | 63 | 253 | 7.0 | 12.0 | 0.01 | 0.06 | 0.06 | 96 | 1008.0 |
| 20260902181205 | 63 | 235 | 9.0 | 15.0 | 0.01 | 0.06 | 0.06 | 96 | 1007.9 |
| 20260902180704 | 64 | 216 | 9.0 | 12.0 | 0.01 | 0.06 | 0.06 | 95 | 1007.6 |
| 20260902171205 | 64 | 216 | 9.0 | 12.0 | 0.00 | 0.05 | 0.05 | 95 | 1007.5 |
| 20260902165204 | 64 | 251 | 9.0 | 13.0 | 0.00 | 0.05 | 0.05 | 95 | 1007.6 |
| 20260902164704 | 64 | 238 | 10.0 | 17.0 | 0.00 | 0.05 | 0.05 | 95 | 1007.6 |
| 20260902164204 | 64 | 246 | 9.0 | 20.0 | 0.00 | 0.05 | 0.05 | 95 | 1007.6 |
| 20260902163703 | 64 | 240 | 8.0 | 15.0 | 0.00 | 0.05 | 0.05 | 95 | 1007.7 |
| 20260902163204 | 64 | 238 | 8.0 | 15.0 | 0.00 | 0.05 | 0.05 | 94 | 1007.5 |
| 20260902162704 | 64 | 234 | 9.0 | 14.0 | 0.00 | 0.05 | 0.05 | 94 | 1007.7 |
| 20260902162204 | 64 | 222 | 7.0 | 14.0 | 0.00 | 0.05 | 0.05 | 94 | 1007.7 |
| 20260902161704 | 64 | 213 | 5.0 | 17.0 | 0.00 | 0.05 | 0.05 | 94 | 1007.6 |
| 20260902161204 | 64 | 211 | 8.0 | 12.0 | 0.00 | 0.05 | 0.05 | 94 | 1007.6 |
| 20260902160704 | 64 | 213 | 7.0 | 12.0 | 0.00 | 0.05 | 0.05 | 93 | 1007.6 |
| 20260902155703 | 64 | 235 | 10.0 | 15.0 | 0.00 | 0.05 | 0.05 | 93 | 1007.5 |
| 20260902155203 | 64 | 279 | 9.0 | 14.0 | 0.00 | 0.05 | 0.05 | 93 | 1007.6 |
| 20260902154704 | 64 | 216 | 7.0 | 15.0 | 0.00 | 0.05 | 0.05 | 92 | 1007.5 |
| 20260902153704 | 65 | 234 | 10.0 | 16.0 | 0.00 | 0.05 | 0.05 | 92 | 1007.5 |
| 20260902153204 | 65 | 235 | 6.0 | 12.0 | 0.00 | 0.05 | 0.05 | 92 | 1007.4 |
| 20260902152703 | 65 | 248 | 8.0 | 14.0 | 0.00 | 0.05 | 0.05 | 92 | 1007.5 |
| 20260902152204 | 65 | 241 | 8.0 | 12.0 | 0.01 | 0.05 | 0.05 | 92 | 1007.7 |
| 20260902151704 | 65 | 247 | 9.0 | 14.0 | 0.01 | 0.05 | 0.05 | 92 | 1007.5 |
| 20260902151204 | 65 | 254 | 7.0 | 13.0 | 0.01 | 0.05 | 0.05 | 92 | 1007.7 |
| 20260902150704 | 65 | 240 | 10.0 | 14.0 | 0.01 | 0.06 | 0.05 | 93 | 1007.6 |
| 20260902150203 | 65 | 285 | 10.0 | 15.0 | 0.01 | 0.08 | 0.05 | 93 | 1007.7 |
| 20260902145704 | 64 | 271 | 6.0 | 14.0 | 0.01 | 0.18 | 0.05 | 93 | 1007.7 |
| 20260902144704 | 64 | 254 | 6.0 | 12.0 | 0.01 | 0.29 | 0.05 | 93 | 1007.8 |
| 20260902144204 | 64 | 244 | 9.0 | 14.0 | 0.01 | 0.30 | 0.05 | 93 | 1007.8 |
| 20260902143704 | 63 | 228 | 7.0 | 17.0 | 0.01 | 0.30 | 0.05 | 93 | 1007.7 |
| 20260902143205 | 63 | 241 | 8.0 | 16.0 | 0.01 | 0.31 | 0.05 | 93 | 1007.9 |
| 20260902142705 | 63 | 267 | 7.0 | 15.0 | 0.01 | 0.31 | 0.05 | 92 | 1007.8 |
| 20260902141704 | 64 | 260 | 11.0 | 17.0 | 0.00 | 0.31 | 0.04 | 92 | 1007.8 |
| 20260902141204 | 64 | 260 | 9.0 | 14.0 | 0.00 | 0.35 | 0.04 | 92 | 1007.8 |
| 20260902135703 | 64 | 225 | 13.0 | 25.0 | 0.00 | 0.39 | 0.04 | 92 | 1007.9 |
| 20260902135204 | 64 | 269 | 10.0 | 16.0 | 0.00 | 0.40 | 0.04 | 92 | 1007.7 |
| 20260902134704 | 64 | 251 | 12.0 | 21.0 | 0.00 | 0.41 | 0.04 | 92 | 1007.8 |
| 20260902134204 | 65 | 266 | 10.0 | 20.0 | 0.00 | 0.43 | 0.04 | 92 | 1007.9 |
| 20260902133705 | 65 | 230 | 11.0 | 16.0 | 0.00 | 0.45 | 0.04 | 92 | 1007.9 |
| 20260902133204 | 65 | 246 | 10.0 | 16.0 | 0.00 | 0.46 | 0.04 | 92 | 1007.9 |
| 20260902132203 | 65 | 241 | 8.0 | 14.0 | 0.00 | 0.49 | 0.04 | 92 | 1007.9 |
| 20260902131704 | 65 | 255 | 9.0 | 16.0 | 0.00 | 0.50 | 0.04 | 92 | 1008.0 |
| 20260902131204 | 65 | 219 | 11.0 | 18.0 | 0.00 | 0.54 | 0.04 | 92 | 1007.9 |
| 20260902130204 | 65 | 243 | 10.0 | 20.0 | 0.00 | 0.54 | 0.04 | 92 | 1008.1 |
| 20260902124704 | 66 | 247 | 9.0 | 16.0 | 0.00 | 0.54 | 0.04 | 93 | 1007.8 |
| 20260902124204 | 66 | 251 | 11.0 | 17.0 | 0.00 | 0.54 | 0.04 | 93 | 1007.8 |
| 20260902123704 | 66 | 238 | 13.0 | 21.0 | 0.00 | 0.54 | 0.04 | 94 | 1007.7 |
| 20260902123204 | 66 | 241 | 11.0 | 17.0 | 0.00 | 0.54 | 0.04 | 94 | 1007.6 |
| 20260902122704 | 66 | 238 | 7.0 | 14.0 | 0.00 | 0.54 | 0.04 | 95 | 1007.5 |
| 20260902122205 | 65 | 248 | 10.0 | 17.0 | 0.00 | 0.54 | 0.04 | 95 | 1007.6 |
| 20260902121705 | 64 | 234 | 10.0 | 16.0 | 0.00 | 0.54 | 0.04 | 95 | 1007.6 |
| 20260902120704 | 65 | 235 | 7.0 | 12.0 | 0.00 | 0.54 | 0.04 | 95 | 1007.5 |
| 20260902120204 | 65 | 234 | 10.0 | 16.0 | 0.00 | 0.54 | 0.04 | 95 | 1007.5 |
| 20260902115704 | 65 | 219 | 6.0 | 12.0 | 0.00 | 0.54 | 0.04 | 95 | 1007.6 |
| 20260902114703 | 64 | 228 | 6.0 | 10.0 | 0.00 | 0.54 | 0.04 | 94 | 1007.7 |
| 20260902114203 | 65 | 242 | 5.0 | 10.0 | 0.00 | 0.54 | 0.04 | 94 | 1007.7 |
| 20260902113704 | 65 | 231 | 5.0 | 10.0 | 0.00 | 0.54 | 0.04 | 94 | 1007.6 |
| 20260902113203 | 65 | 230 | 6.0 | 10.0 | 0.00 | 0.54 | 0.04 | 94 | 1007.6 |
| 20260902112204 | 65 | 197 | 6.0 | 10.0 | 0.00 | 0.54 | 0.04 | 94 | 1007.7 |
| 20260902111704 | 64 | 205 | 6.0 | 10.0 | 0.00 | 0.54 | 0.04 | 94 | 1007.7 |
| 20260902111204 | 64 | 193 | 5.0 | 9.0 | 0.00 | 0.54 | 0.04 | 94 | 1007.7 |
| 20260902110704 | 64 | 231 | 6.0 | 10.0 | 0.00 | 0.54 | 0.04 | 94 | 1007.7 |
| 20260902110204 | 64 | 182 | 5.0 | 10.0 | 0.00 | 0.54 | 0.04 | 94 | 1007.7 |
| 20260902105703 | 64 | 208 | 7.0 | 13.0 | 0.00 | 0.54 | 0.04 | 94 | 1007.7 |
| 20260902105204 | 64 | 201 | 7.0 | 13.0 | 0.00 | 0.54 | 0.04 | 95 | 1007.7 |
| 20260902104204 | 64 | 217 | 6.0 | 12.0 | 0.00 | 0.54 | 0.04 | 95 | 1007.7 |
| 20260902103704 | 64 | 203 | 6.0 | 12.0 | 0.00 | 0.54 | 0.04 | 95 | 1007.7 |
| 20260902103204 | 64 | 218 | 6.0 | 9.0 | 0.00 | 0.55 | 0.04 | 95 | 1007.7 |
| 20260902102704 | 63 | 170 | 5.0 | 8.0 | 0.00 | 0.55 | 0.04 | 95 | 1007.7 |
| 20260902101204 | 63 | 177 | 4.0 | 8.0 | 0.00 | 0.55 | 0.04 | 96 | 1007.7 |
| 20260902100704 | 62 | 176 | 3.0 | 9.0 | 0.00 | 0.55 | 0.04 | 96 | 1007.8 |
| 20260902100203 | 62 | 158 | 5.0 | 9.0 | 0.00 | 0.55 | 0.04 | 96 | 1007.8 |
| 20260902095704 | 62 | 185 | 6.0 | 12.0 | 0.00 | 0.55 | 0.04 | 96 | 1007.8 |
| 20260902095204 | 62 | 177 | 5.0 | 12.0 | 0.00 | 0.55 | 0.04 | 96 | 1007.8 |
| 20260902094703 | 62 | 177 | 5.0 | 9.0 | 0.00 | 0.55 | 0.04 | 96 | 1007.9 |
| 20260902094204 | 61 | 160 | 6.0 | 12.0 | 0.00 | 0.56 | 0.04 | 96 | 1007.8 |
| 20260902093704 | 61 | 174 | 5.0 | 8.0 | 0.00 | 0.57 | 0.04 | 96 | 1007.9 |
| 20260902092204 | 60 | 194 | 6.0 | 9.0 | 0.00 | 0.57 | 0.04 | 96 | 1008.2 |
| 20260902091704 | 60 | 187 | 3.0 | 9.0 | 0.00 | 0.57 | 0.04 | 96 | 1008.2 |
| 20260902091204 | 60 | 193 | 7.0 | 12.0 | 0.00 | 0.57 | 0.04 | 96 | 1008.1 |
| 20260902090703 | 60 | 160 | 5.0 | 12.0 | 0.00 | 0.57 | 0.04 | 96 | 1008.1 |
| 20260902090204 | 60 | 182 | 5.0 | 12.0 | 0.00 | 0.57 | 0.04 | 96 | 1008.3 |
| 20260902085703 | 60 | 167 | 5.0 | 9.0 | 0.00 | 0.57 | 0.04 | 96 | 1008.3 |
| 20260902085204 | 60 | 183 | 5.0 | 7.0 | 0.00 | 0.57 | 0.04 | 96 | 1008.3 |
| 20260902084703 | 60 | 159 | 6.0 | 14.0 | 0.00 | 0.57 | 0.04 | 96 | 1008.3 |
| 20260902084204 | 60 | 202 | 5.0 | 12.0 | 0.00 | 0.57 | 0.04 | 96 | 1008.3 |
| 20260902083704 | 59 | 149 | 5.0 | 10.0 | 0.00 | 0.57 | 0.04 | 96 | 1008.3 |
| 20260902083205 | 59 | 158 | 6.0 | 12.0 | 0.00 | 0.57 | 0.04 | 96 | 1008.3 |
| 20260902082704 | 60 | 168 | 8.0 | 13.0 | 0.00 | 0.57 | 0.04 | 96 | 1008.2 |
| 20260902082204 | 59 | 130 | 6.0 | 12.0 | 0.00 | 0.57 | 0.04 | 96 | 1008.3 |
| 20260902081704 | 59 | 134 | 8.0 | 14.0 | 0.00 | 0.57 | 0.04 | 96 | 1008.1 |
| 20260902080704 | 59 | 140 | 6.0 | 13.0 | 0.00 | 0.57 | 0.04 | 96 | 1008.1 |
| 20260902080204 | 59 | 132 | 6.0 | 12.0 | 0.00 | 0.57 | 0.04 | 96 | 1008.1 |
| 20260902075204 | 59 | 175 | 5.0 | 13.0 | 0.00 | 0.57 | 0.04 | 96 | 1008.4 |
| 20260902074204 | 58 | 129 | 5.0 | 9.0 | 0.00 | 0.57 | 0.04 | 96 | 1008.4 |
| 20260902073203 | 58 | 137 | 5.0 | 10.0 | 0.00 | 0.57 | 0.04 | 96 | 1008.5 |
| 20260902072204 | 58 | 129 | 5.0 | 8.0 | 0.00 | 0.58 | 0.04 | 96 | 1008.5 |